Location: Hilderbrand
(37.5756°N, 89.8540°W)
Time: 06:40:35
(UTC+00:00)

Daily predictions for brighter satellites

Satellite Brightness Start Highest point End
(mag) Time Altitude Azimuth Time Altitude Azimuth Time Altitude Azimuth
CBERS-1 4.0 12:02:06 10° N 12:07:13 77° WNW 12:12:17 10° SSW
Cosmos 1025 Rocket 3.3 12:04:39 10° SSW 12:08:50 48° W 12:13:03 10° N
Cosmos 2297 3.8 12:09:10 10° NNW 12:14:42 58° WSW 12:20:10 10° S
Cosmos 1674 Rocket 4.4 12:11:03 10° SW 12:14:54 29° WNW 12:18:46 10° NNW
Cosmos 1943 3.4 12:10:34 10° SW 12:15:59 49° WNW 12:21:25 10° NNE
Landsat 7 4.2 23:09:12 10° SE 23:13:28 38° ENE 23:17:47 10° N
Cosmos 1725 Rocket 4.4 23:08:13 10° SSW 23:14:26 71° W 23:20:45 10° N
Cosmos 2233 Rocket 4.0 23:09:24 10° S 23:15:40 80° E 23:22:00 10° N
Cosmos 1300 Rocket 3.7 23:12:27 10° S 23:16:50 84° W 23:21:14 10° N
CORIOLIS 4.1 23:14:26 10° SSE 23:19:46 70° ENE 23:25:06 10° N
Cosmos 407 Rocket 3.7 23:19:10 10° S 23:24:12 53° ESE 23:29:13 10° NNE
ISS -3.3 23:21:23 10° WSW 23:24:41 59° NW 23:27:59 10° NE
CZ-2D R/B 2.9 23:22:45 10° SSE 23:25:47 46° ENE 23:28:49 10° N
SL-12 R/B(2) 4.2 23:18:52 10° SSW 23:26:25 75° ESE 23:35:30 10° NE
Cosmos 1943 Rocket 2.4 23:23:10 10° S 23:28:36 53° ESE 23:34:02 10° NNE
OAO 3 Rocket 3.8 23:24:26 10° WSW 23:28:53 46° SSE 23:33:15 10° E
Cosmos 2278 Rocket 2.4 23:23:33 10° S 23:28:58 50° ESE 23:34:25 10° NNE
Cosmos 2082 Rocket 3.6 23:26:20 10° NNE 23:29:43 16° NE 23:33:06 10° E
Aureole 3 Rocket 3.2 23:28:21 10° SSE 23:31:03 26° E 23:33:38 10° NNE
IRS-1C 4.1 23:25:59 10° SSE 23:31:15 68° ENE 23:36:32 10° N
Cosmos 1975 Rocket 3.1 23:29:25 10° N 23:33:42 57° E 23:38:00 10° SSE
ATLAS 5 CENTAUR R/B 2.1 23:31:30 10° NNW 23:36:02 52° NE 23:41:39 10° SE
MOS 1 Rocket 3.5 23:35:42 10° SE 23:39:40 40° ENE 23:43:46 10° N
SAR-Lupe-1 4.0 23:36:25 10° SSE 23:39:57 85° ENE 23:43:32 10° NNW
COSMO-SKYMED 1 3.4 23:37:14 10° NE 23:40:45 27° E 23:44:14 10° SSE
USA 215 3.2 23:35:35 10° SE 23:42:06 75° NE 23:48:38 10° NW
SKYMED 2 3.8 23:40:57 10° NNE 23:45:08 46° E 23:49:18 10° S
Helios 1A Rocket 3.3 23:43:02 12° NE 23:45:37 28° E 23:48:34 10° SSE
Okean 1 Rocket 4.5 23:42:44 10° SE 23:45:40 18° E 23:46:31 17° ENE
SAR-Lupe-4 4.5 23:48:40 10° S 23:52:08 52° W 23:55:40 10° NNW
RESURS DK-1 3.1 23:51:41 10° N 23:55:13 29° ENE 23:57:09 19° ESE
